Saint Augustine, FL

12:30 PM EST on February 27, 2017 (GMT -0500)
Saint Augustine

Weather History for KSGJ - March, 2013

Change the Weather History Date:

Saturday, March 16, 2013

  Actual Average Record
Temperature  
Mean Temperature 62 °F -  
Max Temperature 80 °F 69 °F 88 °F (2016)
Min Temperature 45 °F 53 °F 35 °F (1988)
Degree Days  
Heating Degree Days 2    
Growing Degree Days 12 (Base 50)    
Moisture  
Dew Point 43 °F    
Average Humidity 54    
Maximum Humidity 93    
Minimum Humidity 24    
Precipitation  
Precipitation 0.00 in - - ()
Sea Level Pressure  
Sea Level Pressure 30.11 in    
Wind  
Wind Speed 6 mph (WSW)    
Max Wind Speed 15 mph    
Max Gust Speed 21 mph    
Visibility 10 miles    
Events      
Averages and records for this station are not official NWS values.
T = Trace of Precipitation, MM = Missing Value Source: NWS Daily Summary

Daily Weather History Graph

Daily Weather History Graph

Search for Another Location

Airport or City:

Trip Planner

Search our weather history database for the weather conditions in past years. The results will help you decide how hot, cold, wet, or windy it might be!

Date:

Astronomy

Mar. 16, 2013 Rise Set
Actual Time 7:33 AM EDT 7:34 PM EDT
Civil Twilight 7:09 AM EDT 7:58 PM EDT
Nautical Twilight 6:42 AM EDT 8:26 PM EDT
Astronomical Twilight 6:14 AM EDT 8:54 PM EDT
Moon 10:24 AM EDT (3/16) No Moon Set
Length of Visible Light 12h 48m
Length of Day
12h 00m
Waxing Crescent, 23% of the Moon is Illuminated
Mar 16
Waxing Crescent
Mar 19
First Quarter
Mar 27
Full
Apr 3
Last Quarter
Apr 10
New

Hourly Weather History & Observations

Time (EDT) Temp. Windchill Dew Point Humidity Pressure Visibility Wind Dir Wind Speed Gust Speed Precip Events Conditions
1:58 AM 50.0 °F - 39.9 °F 68% 30.17 in 10.0 mi WSW 5.8 mph - N/A   Clear
2:58 AM 48.9 °F - 39.9 °F 71% 30.15 in 10.0 mi SW 4.6 mph - N/A   Clear
3:58 AM 48.0 °F - 41.0 °F 77% 30.15 in 10.0 mi SSW 5.8 mph - N/A   Clear
4:58 AM 48.0 °F - 43.0 °F 83% 30.14 in 10.0 mi SW 4.6 mph - N/A   Clear
5:58 AM 46.9 °F - 43.0 °F 86% 30.13 in 10.0 mi Calm Calm - N/A   Clear
6:58 AM 45.0 °F 42.6 °F 42.1 °F 90% 30.14 in 10.0 mi SSW 4.6 mph - N/A   Clear
7:58 AM 45.0 °F - 43.0 °F 93% 30.16 in 10.0 mi Calm Calm - N/A   Clear
8:58 AM 50.0 °F - 46.9 °F 89% 30.17 in 10.0 mi SW 4.6 mph - N/A   Clear
9:58 AM 60.1 °F - 51.1 °F 72% 30.17 in 10.0 mi West 6.9 mph - N/A   Clear
10:58 AM 66.9 °F - 44.1 °F 44% 30.17 in 10.0 mi West 10.4 mph - N/A   Clear
11:58 AM 70.0 °F - 45.0 °F 41% 30.15 in 10.0 mi West 9.2 mph - N/A   Clear
12:58 PM 73.0 °F - 44.1 °F 35% 30.13 in 10.0 mi Variable 6.9 mph - N/A   Clear
1:58 PM 75.9 °F - 42.1 °F 30% 30.10 in 10.0 mi WSW 10.4 mph 18.4 mph N/A   Clear
2:58 PM 78.1 °F - 43.0 °F 29% 30.07 in 10.0 mi SW 10.4 mph 16.1 mph N/A   Clear
3:58 PM 79.0 °F - 41.0 °F 26% 30.04 in 10.0 mi West 12.7 mph 17.3 mph N/A   Clear
4:58 PM 80.1 °F - 39.9 °F 24% 30.03 in 10.0 mi WSW 15.0 mph 20.7 mph N/A   Clear
5:58 PM 79.0 °F - 39.9 °F 25% 30.02 in 10.0 mi WSW 9.2 mph 17.3 mph N/A   Clear
6:58 PM 77.0 °F - 39.9 °F 26% 30.03 in 10.0 mi WSW 10.4 mph 17.3 mph N/A   Clear
7:58 PM 72.0 °F - 42.1 °F 34% 30.04 in 10.0 mi SW 5.8 mph - N/A   Clear
8:58 PM 66.9 °F - 44.1 °F 44% 30.07 in 10.0 mi SW 5.8 mph - N/A   Clear
9:58 PM 64.0 °F - 45.0 °F 50% 30.09 in 10.0 mi WSW 4.6 mph - N/A   Clear
10:58 PM 62.1 °F - 44.1 °F 52% 30.10 in 10.0 mi West 5.8 mph - N/A   Clear
11:58 PM 60.1 °F - 44.1 °F 55% 30.10 in 10.0 mi WSW 5.8 mph - N/A   Clear